Tracking 19246 objects as of 19-Aug-2018
HD Live streaming from Space Station
objects crossing your sky now

INTELSAT 6B (PAS 6B)

Track INTELSAT 6B (PAS 6B) now!
INTELSAT 6B (PAS 6B) is classified as:


NORAD ID: 25585
Int'l Code: 1998-075A
Perigee: 36,041.1 km
Apogee: 36,181.1 km
Inclination: 8.0 °
Period: 1,452.3 minutes
Semi major axis: 42482 km
RCS: 21.1435 m2 (large)
Launch date: December 22, 1998
Source: United States (US)
Launch site: FRENCH GUIANA (FRGUI)

voice and video communcations; 32 Ku-band; South America.
aabbcc
Your satellite tracking list
Your tracking list is empty




NASA's NSSDC Master Catalog

Two Line Element Set (TLE):
1 25585U 98075A   18230.51975674 -.00000049  00000-0  00000+0 0  9995
2 25585   7.9553  48.6978 0016478 101.8841  92.6159  0.99150408 71643
Source of the keplerian elements: AFSPC